Regional Weather Roundup
Issued by NWS Albany, NY

Home | Current Version | Previous Version | Graphics & Text | Print | Product List | Glossary Off
Versions: 1 2 3 4 5 6 7 8 9 10 11 12 13 14 15 16 17 18 19 20 21 22 23 24 25 26 27 28

000
ASUS41 KALY 240910
RWRALY

NEW YORK STATE HOURLY WEATHER ROUNDUP
NATIONAL WEATHER SERVICE ALBANY NY
500 AM EDT THU APR 24 2014

NOTE: "FAIR" INDICATES FEW OR NO CLOUDS BELOW 12,000 FEET WITH NO
SIGNIFICANT WEATHER AND/OR NO OBSTRUCTIONS TO VISIBILITY.

NYZ032-033-038>043-046>054-057>066-NYZ062>081-241000-
EAST


CITY           SKY/WX    TMP DP  RH WIND       PRES   REMARKS
ALBANY         CLEAR     37  17  44 NW13      29.85R WCI  29
GLENS FALLS    CLEAR     40  14  34 NW13      29.83R WCI  32
POUGHKEEPSIE   CLEAR     38  23  55 CALM      29.83R
NEWBURGH       CLEAR     39  25  56 SW9       29.84S WCI  33
MONTGOMERY     CLEAR     39  19  44 NW12      29.84R WCI  32
WHITE PLAINS   CLEAR     40  26  57 NW14G22   29.80S WCI  32
ISLIP          CLEAR     42  29  59 W12       29.78R
NEW YORK CITY  CLEAR     44  24  45 NW18      29.84S
CENTRAL PARK   CLEAR     43  23  45 VRB7G20   29.87R
$$

NYZ005>009-017-018-044>046-055-056-241000-
CENTRAL


CITY           SKY/WX    TMP DP  RH WIND       PRES   REMARKS
FULTON         CLEAR     36  20  52 NW12      30.00R WCI  28
SYRACUSE       CLEAR     36  19  50 W8        30.00R WCI  30
ROME           CLEAR     32  19  58 W9        29.97R WCI  24
ELMIRA         CLEAR     32  19  58 SW8       30.01R WCI  25
BINGHAMTON     CLEAR     31  20  63 NW8       29.92S WCI  23
MONTICELLO     CLEAR     34  18  51 NW16G29   29.85S WCI  23
$$

NYZ026>034-041>043-241000-
NORTH


CITY           SKY/WX    TMP DP  RH WIND       PRES   REMARKS
WATERTOWN      CLEAR     33  17  51 W8        30.00R WCI  26
FORT DRUM      NOT AVBL
MASSENA        CLEAR     34  19  54 W9        29.94R WCI  27
SARANAC LAKE   CLEAR     28  14  55 NW8       29.82R WCI  20
PLATTSBURGH    CLEAR     36  18  48 NW14G22   29.83S WCI  27
$$

NYZ001>004-010>016-019>021-241000-
WEST


CITY           SKY/WX    TMP DP  RH WIND       PRES   REMARKS
NIAGARA FALLS  CLEAR     32  22  66 NW7       30.09R WCI  26
BUFFALO        CLEAR     33  21  61 NW7       30.08R WCI  27
DUNKIRK        CLEAR     29  22  75 SW5       30.11R WCI  24
JAMESTOWN      CLEAR     30  16  55 NW8       30.05S WCI  23
WELLSVILLE     CLEAR     29  16  58 NW6       30.01R WCI  23
ROCHESTER      CLEAR     33  23  66 W6        30.06R WCI  28
PENN YAN       CLEAR     34  21  59 NW10      30.01R WCI  26
$$

             KEY
       WCI = WIND CHILL INDEX
       VSB = VISIBILITY
       HX  = HEAT INDEX
$$



USA.gov is the U.S. government's official web portal to all federal, state and local government web resources and services.